Wind_Speed
10 11 13 14 14 15 15 9 12 14 14 16 19 20 17 15 11 14 11 14 13 14 15 14 13 14 14 13 13 13 14 16 17
12 12 15 14 15 18 13 10 12 12 13 15 20 20 18 15 12 11 15 15 14 14 15 17 16 15 13 14 14 15 17 15 14
12 15 15 14 16 18 14 12 11 11 13 16 21 21 17 11 9 10 13 14 16 16 16 18 17 16 16 15 16 18 17 15 14
15 15 16 16 16 18 16 12 10 11 13 17 21 19 15 10 11 15 14 15 21 16 17 18 16 22 23 21 19 18 17 15 15
15 15 15 16 15 15 16 12 10 11 15 20 21 19 16 15 10 15 13 18 19 19 20 17 22 20 20 19 17 17 15 16 12
15 15 15 16 15 14 14 12 12 14 23 24 17 15 11 15 11 13 8 17 17 20 17 17 19 18 20 18 14 13 12 12 12
14 14 16 16 14 14 14 13 14 20 23 18 11 13 13 12 10 17 15 14 13 21 19 19 16 15 11 11 11 9 9 13 14
15 15 16 15 14 15 16 17 18 23 22 17 13 17 16 9 13 20 14 18 19 21 21 17 14 11 7 7 9 7 13 14 19
16 16 18 17 14 15 20 20 16 18 21 17 15 15 16 10 14 20 17 17 17 19 19 13 10 8 7 7 11 16 18 20 19
14 16 16 16 11 10 19 17 21 19 19 12 15 15 16 14 16 18 18 15 16 19 14 11 6 5 9 15 16 18 17 16 14
14 13 16 15 14 12 15 15 19 20 19 16 12 17 17 16 18 17 19 14 19 14 11 10 8 12 14 18 16 14 14 16 15
25 20 20 20 16 17 19 18 21 22 21 19 14 16 15 15 18 20 17 18 18 15 12 10 8 12 16 14 12 13 14 11 9
28 28 26 25 17 19 21 20 20 22 22 21 17 14 16 16 13 14 18 20 20 15 9 6 13 15 12 10 11 10 10 8 6
26 26 25 25 25 22 24 23 23 25 25 23 22 16 17 16 17 16 17 22 21 13 9 5 7 10 11 10 11 9 7 4 3
27 26 25 25 27 25 27 25 23 24 27 25 25 19 15 18 15 17 18 24 18 13 10 7 3 10 8 4 8 6 4 2 1
27 28 27 27 28 28 27 25 26 27 26 25 22 19 16 18 15 20 19 19 16 13 10 7 4 10 8 10 9 7 3 1 0
30 29 30 28 30 30 30 30 28 28 26 24 22 15 14 16 16 14 17 16 15 12 9 7 8 11 10 11 11 8 6 5 0
31 31 31 30 31 32 31 31 31 31 27 23 16 12 9 19 18 18 18 18 17 16 13 11 11 11 13 14 13 11 8 8 7
32 33 32 31 31 31 32 31 31 30 30 26 21 16 16 16 15 22 24 24 22 21 19 17 15 15 15 16 16 14 11 10 12
33 35 34 32 33 33 32 31 31 30 28 30 28 20 15 13 16 21 27 25 23 26 27 24 21 20 19 17 16 15 14 13 13
Wind_Direction
141 153 147 140 137 134 141 130 121 126 121 114 114 118 109 108 106 104 105 101 101 92 99 110 119 103 101 101 103 96 92 84 74
150 156 147 143 135 132 137 142 126 123 120 116 117 106 99 106 114 106 106 99 98 96 94 99 104 105 115 107 97 90 84 71 80
154 153 148 143 136 136 156 165 133 129 125 123 123 114 109 132 143 103 117 112 101 95 87 100 99 105 95 93 90 86 91 96 94
152 157 154 146 142 149 162 152 142 132 127 128 122 114 115 111 111 112 108 104 105 98 91 96 91 91 88 88 96 102 100 98 89
155 162 159 149 153 153 162 158 144 132 125 124 125 126 125 121 129 119 110 108 106 107 111 94 94 103 106 110 111 107 100 88 77
158 162 158 153 159 156 155 152 141 131 125 120 127 127 143 124 112 119 129 124 129 120 116 113 114 119 120 116 106 100 90 79 69
165 164 157 164 162 160 151 143 138 135 129 126 124 131 137 139 108 107 107 129 125 139 123 116 120 117 120 127 113 102 96 89 84
180 179 165 166 164 160 148 140 136 140 125 111 108 127 126 128 119 122 116 112 118 131 122 129 128 123 119 109 107 104 98 90 93
197 192 174 171 170 162 148 138 134 142 133 120 161 154 140 144 140 135 127 120 121 126 132 134 122 122 107 92 103 101 97 94 96
204 186 177 179 173 180 158 150 161 154 146 159 179 177 154 148 150 139 141 124 138 138 143 124 97 76 98 109 100 102 104 104 93
189 185 179 171 183 198 161 171 160 151 152 167 169 152 158 149 150 146 147 140 151 151 142 118 77 104 105 105 116 114 105 98 108
183 184 183 175 190 193 169 179 170 156 160 151 145 158 163 160 158 154 158 152 159 156 156 118 89 111 113 124 120 103 115 123 115
194 195 196 189 183 197 175 183 177 163 165 166 147 166 166 170 164 160 158 157 160 161 151 101 102 125 136 136 119 131 143 134 107
201 201 202 192 196 191 182 183 184 174 166 163 157 164 171 174 179 173 168 171 166 170 160 140 128 149 159 138 134 147 160 126 90
204 202 203 196 194 192 190 191 188 183 179 175 171 166 164 174 174 185 193 178 167 177 177 175 163 145 162 137 151 167 163 146 68
204 203 204 199 198 196 193 191 189 185 191 179 172 177 184 177 171 166 185 172 172 173 184 191 239 186 180 163 189 208 234 267 331
208 207 207 202 196 195 197 196 196 195 197 183 172 160 176 185 188 190 187 181 183 184 197 229 233 217 205 201 206 230 266 291 212
210 210 211 204 199 199 200 201 205 198 195 198 183 154 184 187 193 198 202 205 193 189 208 235 231 228 216 219 223 242 263 288 299
212 211 213 207 201 202 202 205 207 209 199 192 200 198 195 178 184 200 210 214 211 209 218 218 219 220 228 228 234 247 256 264 278
215 211 213 210 205 207 209 209 208 210 210 204 196 195 191 203 190 198 205 212 222 226 223 225 225 225 240 237 238 245 250 253 265
Height
1541 1541 1543 1545 1547 1549 1552 1553 1555 1557 1559 1561 1563 1565 1566 1567 1569 1569 1569 1569 1570 1570 1570 1571 1574 1575 1575 1576 1576 1576 1576 1576 1576
1541 1542 1544 1545 1548 1551 1554 1554 1556 1559 1560 1562 1564 1566 1568 1569 1570 1570 1570 1571 1572 1572 1572 1573 1574 1575 1576 1577 1578 1578 1578 1579 1579
1540 1542 1545 1547 1549 1552 1555 1556 1557 1560 1562 1564 1566 1568 1570 1571 1571 1572 1572 1572 1574 1575 1574 1575 1576 1576 1577 1578 1578 1579 1581 1581 1581
1541 1543 1546 1548 1550 1552 1554 1556 1558 1561 1563 1565 1568 1570 1571 1572 1572 1573 1574 1575 1575 1576 1576 1578 1578 1578 1580 1581 1582 1582 1583 1582 1582
1542 1544 1546 1548 1551 1552 1554 1557 1559 1562 1564 1567 1569 1570 1572 1573 1574 1575 1576 1577 1578 1578 1580 1581 1581 1582 1583 1583 1584 1584 1584 1585 1583
1542 1545 1547 1550 1551 1552 1555 1557 1560 1563 1566 1569 1570 1571 1573 1574 1574 1575 1576 1578 1580 1581 1582 1583 1583 1584 1585 1586 1587 1586 1586 1586 1586
1543 1545 1549 1551 1551 1553 1556 1558 1561 1564 1567 1569 1571 1572 1574 1575 1576 1576 1579 1580 1581 1582 1584 1586 1586 1586 1587 1588 1588 1588 1587 1587 1587
1542 1545 1549 1552 1553 1553 1556 1559 1562 1566 1568 1571 1573 1574 1575 1576 1577 1578 1580 1581 1582 1584 1586 1587 1588 1589 1590 1589 1589 1589 1589 1588 1588
1542 1545 1548 1551 1555 1556 1558 1560 1563 1567 1569 1572 1572 1575 1576 1577 1579 1579 1582 1584 1585 1586 1588 1589 1590 1590 1590 1591 1591 1591 1592 1593 1591
1542 1546 1549 1552 1555 1559 1561 1562 1564 1567 1569 1570 1572 1575 1576 1577 1580 1581 1584 1586 1587 1588 1589 1591 1592 1591 1590 1592 1592 1594 1595 1595 1595
1542 1546 1550 1554 1556 1559 1563 1564 1565 1567 1570 1570 1572 1575 1576 1578 1580 1582 1584 1587 1588 1589 1590 1592 1592 1593 1593 1594 1595 1596 1596 1596 1596
1541 1544 1550 1553 1556 1558 1562 1566 1566 1568 1570 1571 1572 1575 1577 1579 1581 1583 1585 1586 1588 1590 1591 1593 1594 1594 1595 1596 1597 1597 1597 1597 1597
1537 1540 1545 1551 1554 1558 1561 1563 1568 1567 1569 1572 1574 1575 1577 1580 1582 1584 1586 1588 1588 1590 1592 1594 1595 1598 1598 1598 1598 1597 1597 1597 1597
1532 1536 1540 1545 1553 1557 1560 1562 1566 1566 1568 1571 1574 1575 1577 1580 1583 1584 1586 1588 1589 1590 1592 1594 1596 1598 1599 1599 1598 1598 1597 1597 1598
1531 1533 1536 1541 1545 1554 1558 1561 1565 1567 1566 1569 1574 1576 1578 1580 1583 1584 1586 1588 1590 1591 1592 1594 1596 1597 1598 1600 1600 1598 1598 1597 1598
1529 1531 1533 1536 1540 1545 1554 1560 1561 1565 1565 1566 1572 1577 1580 1581 1583 1585 1586 1586 1589 1591 1594 1595 1596 1598 1598 1600 1599 1599 1597 1598 1598
1526 1529 1531 1533 1536 1540 1548 1551 1559 1562 1564 1565 1570 1576 1582 1582 1583 1585 1587 1588 1589 1591 1593 1595 1596 1598 1599 1599 1599 1599 1599 1598 1598
1522 1526 1529 1532 1534 1536 1540 1546 1553 1557 1562 1564 1565 1571 1576 1579 1582 1584 1586 1587 1588 1590 1591 1593 1594 1596 1597 1598 1598 1599 1599 1598 1598
1517 1521 1526 1530 1532 1534 1536 1543 1547 1554 1556 1561 1563 1564 1566 1571 1577 1580 1582 1585 1586 1588 1589 1591 1591 1592 1594 1596 1598 1598 1598 1598 1597
1513 1516 1521 1527 1530 1532 1535 1540 1543 1550 1553 1555 1558 1561 1564 1566 1567 1571 1576 1580 1582 1583 1585 1587 1589 1589 1590 1593 1595 1595 1597 1596 1596